Location: Croagnes
(43.9363°N, 5.3265°E)
Time: 21:18:58
(UTC+00:00)

Meteor 1-16 Rocket - Pass Details

Date: 05 October 2020
Orbit: 790 x 908 km, 81.2° (Epoch: 22 October)

Event Time Altitude Azimuth Distance (km) Brightness Sun altitude
Rises 20:10:10 0° 209° (SSW) 3,520 7.4 -32.1°
Reaches altitude 10° 20:12:46 10° 215° (SW) 2,577 6.8 -32.5°
Maximum altitude 20:18:21 43° 286° (WNW) 1,240 5.3 -33.4°
Drops below altitude 10° 20:23:51 10° 358° (N) 2,543 7.0 -34.2°
Sets 20:26:25 0° 5° (N) 3,468 7.7 -34.6°
